Regional Weather Roundup
Issued by NWS

Home | Current Version | Previous Version | Text Only | Print | Product List | Glossary On
Versions: 1 2 3 4 5 6 7 8 9 10 11 12 13 14 15 16 17 18 19 20 21 22 23 24 25 26 27
000
ASUS45 KREV 270710
RWRNV
NEVADA REGIONAL WEATHER ROUNDUP
NATIONAL WEATHER SERVICE RENO NV
1200 AM PDT MON MAR 27 2017

NOTE: "FAIR" INDICATES FEW OR NO CLOUDS BELOW 12,000 FEET WITH NO
SIGNIFICANT WEATHER AND/OR OBSTRUCTIONS TO VISIBILITY.

NVZ001-003-004-270800-
WESTERN NEVADA

CITY           SKY/WX    TMP DP  RH WIND       PRES   REMARKS
RENO           MOCLDY    43  37  79 S6        29.97R
CARSON CITY    CLOUDY    45  32  61 S10       29.99S
MINDEN         MOCLDY    43  34  70 E6        29.97F
FALLON         MOCLDY    50  29  44 W16       29.94R
LOVELOCK       LGT RAIN  48  34  58 NW24G33   29.94R
HAWTHORNE      CLEAR     46  27  46 E8        29.92S
$$

NVZ002-CAZ072-073-270800-
NORTHERN AND CENTRAL SIERRA

CITY           SKY/WX    TMP DP  RH WIND       PRES   REMARKS
S. LAKE TAHOE  LGT SNOW  35  32  88 S8G18     29.97F FOG
TRUCKEE        LGT SNOW  32  32 100 SW5       30.00R
SQUAW VLY 8000   N/A     28  28 100 W6          N/A
MAMMOTH LAKES  FAIR      36  27  71 NW9G26    30.02R
BRIDGEPORT       N/A     36  27  69 CALM      29.97F
$$

NVZ030-031-036-270800-
NORTHERN NEVADA

CITY           SKY/WX    TMP DP  RH WIND       PRES   REMARKS
ELKO           CLOUDY    38  31  76 CALM      29.91F
WINNEMUCCA     LGT RAIN  42  40  92 W10       29.93R
$$

NVZ035-037-270800-
CENTRAL NEVADA

CITY           SKY/WX    TMP DP  RH WIND       PRES   REMARKS
ELY            MOCLDY    42  33  70 S9        29.93F
EUREKA           N/A     35  31  85 SE5       29.91F
$$

NVZ013-014-270800-
SOUTH CENTRAL NEVADA

CITY           SKY/WX    TMP DP  RH WIND       PRES   REMARKS
TONOPAH        CLEAR     41  32  70 CALM      29.93F
$$

NVZ017-020-022-270800-
SOUTHERN NEVADA

CITY           SKY/WX    TMP DP  RH WIND       PRES   REMARKS
LAS VEGAS      MOCLDY    64  30  27 S8        29.86F
N. LAS VEGAS   PTCLDY    63  30  28 SE9       29.86F
NELLIS AFB     PTCLDY    62  32  31 NE7       29.86F
HENDERSON      CLEAR     62  33  33 S12       29.90F
MERCURY        CLEAR     50  32  50 CALM      29.88F
$$




USA.gov is the U.S. government's official web portal to all federal, state and local government web resources and services.